Location: Contre
(49.7477°N, 2.0963°E)
Time: 11:49:27
(UTC+00:00)

Meteor 2-12 Rocket - Pass Details

Date: 10 November 2025
Orbit: 935 x 957 km, 82.5° (Epoch: 05 December)

Event Time Altitude Azimuth Distance (km) Brightness Sun altitude
Rises 05:47:41 0° 135° (SE) 3,629 8.6 -11.1°
Reaches altitude 10° 05:51:07 10° 115° (ESE) 2,688 8.3 -10.6°
Maximum altitude 05:54:47 17° 78° (ENE) 2,246 7.4 -10.0°
Drops below altitude 10° 05:58:27 10° 42° (NE) 2,696 7.2 -9.5°
Sets 06:01:53 0° 23° (NNE) 3,644 7.6 -8.9°
